| time (UTC) | temp C | wind direction | speed KPH | gust KPH | rain 1hr cm | rain 24hr cm | rain mn cm | humidity % | barometer mb |
| 20260506211519 | 5 | 22 | 0.0 | 6.4 | 0.08 | 2.16 | 1.75 | 97 | 1004.3 |
| 20260506210022 | 5 | 299 | 1.6 | 9.7 | 0.10 | 2.29 | 1.75 | 96 | 1004.3 |
| 20260506204517 | 5 | 308 | 3.2 | 12.9 | 0.13 | 2.29 | 1.75 | 96 | 1004.2 |
| 20260506203024 | 5 | 306 | 3.2 | 12.9 | 0.13 | 2.26 | 1.73 | 96 | 1004.3 |
| 20260506201529 | 5 | 9 | 4.8 | 11.3 | 0.13 | 2.21 | 1.68 | 96 | 1004.0 |
| 20260506200014 | 5 | 294 | 1.6 | 4.8 | 0.10 | 2.26 | 1.65 | 96 | 1003.9 |
| 20260506194510 | 5 | 259 | 6.4 | 14.5 | 0.08 | 2.24 | 1.63 | 96 | 1004.0 |
| 20260506193009 | 5 | 307 | 6.4 | 17.7 | 0.05 | 2.21 | 1.60 | 96 | 1004.1 |
| 20260506191507 | 5 | 360 | 4.8 | 11.3 | 0.00 | 2.16 | 1.55 | 96 | 1004.1 |
| 20260506190006 | 6 | 328 | 4.8 | 14.5 | 0.05 | 2.16 | 1.55 | 96 | 1003.9 |
| 20260506184534 | 6 | 319 | 0.0 | 6.4 | 0.25 | 2.16 | 1.55 | 96 | 1003.8 |
| 20260506183042 | 6 | 328 | 1.6 | 8.0 | 0.33 | 2.16 | 1.55 | 96 | 1004.0 |
| 20260506181530 | 6 | 296 | 1.6 | 8.0 | 0.38 | 2.13 | 1.52 | 96 | 1004.1 |
| 20260506180030 | 6 | 264 | 3.2 | 16.1 | 0.69 | 2.11 | 1.50 | 96 | 1004.6 |
| 20260506174528 | 6 | 284 | 6.4 | 11.3 | 0.58 | 1.91 | 1.30 | 96 | 1004.4 |
| 20260506173028 | 6 | 21 | 0.0 | 12.9 | 0.61 | 1.83 | 1.22 | 96 | 1004.5 |
| 20260506171529 | 6 | 5 | 1.6 | 16.1 | 0.61 | 1.75 | 1.14 | 96 | 1004.5 |
| 20260506170023 | 6 | 308 | 6.4 | 17.7 | 0.30 | 1.40 | 0.79 | 95 | 1004.2 |
| 20260506164518 | 7 | 38 | 0.0 | 9.7 | 0.23 | 1.30 | 0.69 | 96 | 1004.1 |
| 20260506163015 | 7 | 312 | 1.6 | 6.4 | 0.15 | 1.19 | 0.58 | 96 | 1004.2 |
| 20260506161544 | 7 | 326 | 0.0 | 6.4 | 0.15 | 1.14 | 0.53 | 96 | 1004.3 |
| 20260506160043 | 8 | 300 | 6.4 | 12.9 | 0.15 | 1.09 | 0.48 | 95 | 1004.5 |
| 20260506154520 | 11 | 146 | 4.8 | 9.7 | 0.13 | 1.07 | 0.46 | 97 | 1004.5 |
| 20260506153018 | 11 | 165 | 8.0 | 19.3 | 0.13 | 1.04 | 0.43 | 97 | 1004.4 |
| 20260506151514 | 10 | 185 | 6.4 | 16.1 | 0.10 | 0.99 | 0.38 | 97 | 1004.8 |
| 20260506150014 | 8 | 123 | 0.0 | 1.6 | 0.08 | 0.94 | 0.33 | 96 | 1005.0 |
| 20260506144514 | 8 | 297 | 3.2 | 8.0 | 0.08 | 0.91 | 0.30 | 96 | 1005.2 |
| 20260506143025 | 8 | 180 | 0.0 | 8.0 | 0.10 | 0.91 | 0.30 | 96 | 1004.9 |
| 20260506141511 | 8 | 158 | 1.6 | 8.0 | 0.10 | 0.89 | 0.28 | 97 | 1004.9 |
| 20260506140009 | 8 | 256 | 0.0 | 6.4 | 0.13 | 0.86 | 0.25 | 96 | 1005.1 |
| 20260506134511 | 7 | 271 | 0.0 | 4.8 | 0.15 | 0.84 | 0.23 | 96 | 1005.5 |
| 20260506133008 | 7 | 249 | 0.0 | 4.8 | 0.15 | 0.81 | 0.20 | 96 | 1005.4 |
| 20260506131508 | 7 | 204 | 0.0 | 14.5 | 0.15 | 0.79 | 0.18 | 96 | 1005.2 |
| 20260506130009 | 7 | 269 | 3.2 | 6.4 | 0.10 | 0.71 | 0.13 | 96 | 1005.6 |
| 20260506124502 | 7 | 292 | 0.0 | 4.8 | 0.05 | 0.69 | 0.08 | 96 | 1005.8 |
| 20260506123100 | 8 | 325 | 0.0 | 4.8 | 0.03 | 0.66 | 0.05 | 96 | 1005.8 |
| 20260506121559 | 8 | 247 | 1.6 | 6.4 | 0.00 | 0.64 | 0.03 | 96 | 1005.9 |
| 20260506120058 | 8 | 273 | 6.4 | 14.5 | 0.00 | 0.64 | 0.03 | 96 | 1006.2 |
| 20260506114555 | 8 | 315 | 3.2 | 9.7 | 0.00 | 0.64 | 0.03 | 96 | 1006.1 |
| 20260506113052 | 8 | 260 | 0.0 | 3.2 | 0.00 | 0.64 | 0.03 | 96 | 1005.5 |
| 20260506111550 | 8 | 298 | 1.6 | 3.2 | 0.00 | 0.64 | 0.03 | 96 | 1005.9 |
| 20260506110048 | 8 | 300 | 0.0 | 3.2 | 0.00 | 0.64 | 0.03 | 96 | 1005.6 |
| 20260506104545 | 8 | 355 | 1.6 | 4.8 | 0.00 | 0.64 | 0.03 | 95 | 1005.6 |
| 20260506103048 | 9 | 30 | 0.0 | 4.8 | 0.00 | 0.64 | 0.03 | 96 | 1005.6 |
| 20260506101541 | 9 | 109 | 0.0 | 4.8 | 0.03 | 0.64 | 0.03 | 96 | 1005.8 |
| 20260506100039 | 9 | 360 | 0.0 | 4.8 | 0.03 | 0.64 | 0.03 | 96 | 1006.0 |
| 20260506094537 | 9 | 301 | 1.6 | 4.8 | 0.03 | 0.64 | 0.03 | 96 | 1005.8 |
| 20260506093006 | 10 | 274 | 0.0 | 3.2 | 0.03 | 0.64 | 0.03 | 96 | 1006.1 |
| 20260506091514 | 10 | 214 | 1.6 | 3.2 | 0.00 | 0.61 | 0.00 | 96 | 1006.1 |
| 20260506090005 | 10 | 215 | 0.0 | 3.2 | 0.00 | 0.61 | 0.00 | 95 | 1006.2 |
| 20260506084503 | 10 | 304 | 0.0 | 1.6 | 0.00 | 0.61 | 0.00 | 95 | 1006.1 |
| 20260506083001 | 10 | 304 | 0.0 | 4.8 | 0.00 | 0.61 | 0.00 | 95 | 1006.6 |
| 20260506081607 | 10 | 288 | 3.2 | 8.0 | 0.00 | 0.61 | 0.00 | 95 | 1007.0 |
| 20260506080154 | 10 | 98 | 0.0 | 0.0 | 0.00 | 0.61 | 0.00 | 95 | 1006.1 |
| 20260506073023 | 10 | 98 | 0.0 | 4.8 | 0.00 | 0.61 | 0.00 | 95 | 1006.1 |
| 20260506071523 | 10 | 333 | 0.0 | 3.2 | 0.00 | 0.61 | 0.00 | 95 | 1005.9 |
| 20260506061538 | 10 | 162 | 0.0 | 1.6 | 0.18 | 0.61 | 0.61 | 94 | 1006.1 |
| 20260506044510 | 10 | 277 | 4.8 | 9.7 | 0.05 | 0.25 | 0.25 | 91 | 1006.7 |
| 20260506043008 | 10 | 355 | 6.4 | 17.7 | 0.05 | 0.25 | 0.25 | 90 | 1006.5 |
| 20260506041505 | 11 | 346 | 11.3 | 20.9 | 0.03 | 0.23 | 0.23 | 84 | 1006.4 |
| 20260506040002 | 14 | 321 | 4.8 | 12.9 | 0.00 | 0.20 | 0.20 | 77 | 1006.2 |
| 20260506034605 | 14 | 251 | 0.0 | 4.8 | 0.00 | 0.20 | 0.20 | 74 | 1005.8 |
| 20260506033027 | 14 | 188 | 1.6 | 6.4 | 0.00 | 0.20 | 0.20 | 75 | 1005.5 |
| 20260506031536 | 14 | 219 | 0.0 | 4.8 | 0.00 | 0.20 | 0.20 | 73 | 1005.5 |
| 20260506030029 | 14 | 173 | 1.6 | 4.8 | 0.00 | 0.20 | 0.20 | 72 | 1005.4 |
| 20260506024538 | 14 | 166 | 3.2 | 11.3 | 0.00 | 0.20 | 0.20 | 72 | 1005.6 |
| 20260506023023 | 14 | 153 | 0.0 | 9.7 | 0.00 | 0.20 | 0.20 | 72 | 1005.4 |
| 20260506021522 | 14 | 149 | 0.0 | 4.8 | 0.00 | 0.20 | 0.20 | 72 | 1005.5 |
| 20260506020019 | 14 | 121 | 1.6 | 6.4 | 0.00 | 0.20 | 0.20 | 72 | 1005.4 |
| 20260506014521 | 14 | 150 | 1.6 | 11.3 | 0.00 | 0.20 | 0.20 | 72 | 1005.2 |
| 20260506013018 | 14 | 164 | 1.6 | 4.8 | 0.00 | 0.20 | 0.20 | 71 | 1005.1 |
| 20260506011517 | 14 | 165 | 1.6 | 4.8 | 0.00 | 0.20 | 0.20 | 70 | 1005.1 |
| 20260506010015 | 15 | 153 | 0.0 | 3.2 | 0.00 | 0.20 | 0.20 | 69 | 1004.9 |
| 20260506004515 | 15 | 150 | 3.2 | 4.8 | 0.00 | 0.20 | 0.20 | 70 | 1005.1 |
| 20260506003014 | 15 | 283 | 1.6 | 9.7 | 0.00 | 0.20 | 0.20 | 70 | 1004.8 |
| 20260506001513 | 15 | 276 | 4.8 | 12.9 | 0.00 | 0.20 | 0.20 | 69 | 1004.8 |
| 20260506000010 | 15 | 266 | 3.2 | 12.9 | 0.00 | 0.20 | 0.20 | 70 | 1004.6 |
| 20260505234510 | 15 | 291 | 4.8 | 12.9 | 0.00 | 0.20 | 0.20 | 71 | 1004.8 |
| 20260505233009 | 15 | 285 | 3.2 | 8.0 | 0.00 | 0.20 | 0.20 | 71 | 1004.5 |
| 20260505231509 | 15 | 259 | 3.2 | 16.1 | 0.00 | 0.20 | 0.20 | 71 | 1004.1 |
| 20260505230005 | 15 | 283 | 8.0 | 20.9 | 0.00 | 0.20 | 0.20 | 71 | 1004.3 |
| 20260505224505 | 15 | 277 | 9.7 | 24.1 | 0.00 | 0.20 | 0.20 | 71 | 1004.1 |
| 20260505223004 | 15 | 244 | 6.4 | 19.3 | 0.00 | 0.20 | 0.20 | 73 | 1003.8 |
| 20260505221505 | 15 | 304 | 4.8 | 17.7 | 0.00 | 0.20 | 0.20 | 78 | 1003.8 |
| 20260505220100 | 15 | 280 | 8.0 | 16.1 | 0.00 | 0.20 | 0.20 | 74 | 1004.4 |
| 20260505214621 | 15 | 239 | 4.8 | 11.3 | 0.00 | 0.20 | 0.20 | 74 | 1003.5 |
| 20260505213103 | 15 | 285 | 1.6 | 9.7 | 0.00 | 0.20 | 0.20 | 75 | 1002.8 |